Location: Newark
(48.8833°N, 0.9236°W)
Time: 22:52:28
(UTC+00:00)

Tiros 1 despin weight - Pass Details

Date: 17 November 2019
Orbit: 594 x 642 km, 48.2° (Epoch: 07 December)

Event Time Altitude Azimuth Distance (km) Brightness Sun altitude
Rises 20:26:02 0° 279° (W) 2,870 ? -39.8°
Enters shadow 20:28:30 - 262° (W) 2,139 ? -40.2°
Reaches altitude 10° 20:29:13 10° 255° (WSW) 1,972 - -40.3°
Maximum altitude 20:31:42 15° 222° (SW) 1,693 - -40.7°
Drops below altitude 10° 20:34:11 10° 188° (S) 1,983 - -41.1°
Sets 20:37:25 0° 165° (SSE) 2,896 - -41.6°
